| time (UTC) | temp C | wind direction | speed KPH | gust KPH | rain 1hr cm | rain 24hr cm | rain mn cm | humidity % | barometer mb |
| 20260507010803 | 10 | 219 | 1.6 | 1.6 | 0.00 | 3.68 | 0.05 | 94 | 1017.8 |
| 20260507010303 | 10 | 257 | 0.0 | 11.3 | 0.00 | 3.68 | 0.05 | 94 | 1017.8 |
| 20260507000803 | 10 | 257 | 1.6 | 3.2 | 0.00 | 3.71 | 0.05 | 93 | 1017.8 |
| 20260507000303 | 10 | 269 | 0.0 | 4.8 | 0.00 | 3.71 | 0.05 | 93 | 1017.8 |
| 20260506230804 | 9 | 54 | 0.0 | 3.2 | 0.05 | 3.71 | 0.05 | 93 | 1017.9 |
| 20260506220804 | 9 | 66 | 3.2 | 4.8 | 0.05 | 3.68 | 0.00 | 93 | 1017.9 |
| 20260506210804 | 8 | 163 | 0.0 | 0.0 | 0.61 | 3.68 | 3.66 | 92 | 1017.9 |
| 20260506210304 | 10 | 252 | 0.0 | 12.9 | 0.18 | 3.23 | 3.20 | 92 | 1017.9 |
| 20260506200804 | 10 | 46 | 0.0 | 3.2 | 0.00 | 3.05 | 3.05 | 91 | 1017.9 |
| 20260506200303 | 10 | 49 | 3.2 | 4.8 | 0.00 | 3.05 | 3.05 | 91 | 1017.9 |
| 20260506190304 | 10 | 277 | 3.2 | 4.8 | 0.48 | 3.05 | 3.05 | 92 | 1017.9 |
| 20260506180804 | 10 | 59 | 3.2 | 4.8 | 0.91 | 2.59 | 2.57 | 91 | 1018.0 |
| 20260506180304 | 10 | 68 | 4.8 | 8.0 | 0.97 | 2.57 | 2.54 | 91 | 1018.0 |
| 20260506170804 | 11 | 274 | 3.2 | 4.8 | 1.14 | 1.70 | 1.68 | 89 | 1018.0 |
| 20260506170304 | 11 | 285 | 1.6 | 20.9 | 1.09 | 1.60 | 1.57 | 90 | 1018.0 |
| 20260506160801 | 12 | 256 | 3.2 | 4.8 | 0.13 | 0.56 | 0.53 | 90 | 1018.0 |
| 20260506150304 | 14 | 250 | 3.2 | 11.3 | 0.00 | 0.41 | 0.41 | 81 | 1018.0 |
| 20260506140802 | 15 | 88 | 3.2 | 8.0 | 0.00 | 0.41 | 0.41 | 72 | 1018.1 |
| 20260506140302 | 15 | 0 | 4.8 | 16.1 | 0.00 | 0.41 | 0.41 | 71 | 1018.1 |
| 20260506130802 | 15 | 90 | 6.4 | 9.7 | 0.00 | 0.41 | 0.41 | 81 | 1018.0 |
| 20260506130303 | 14 | 148 | 0.0 | 8.0 | 0.00 | 0.41 | 0.41 | 83 | 1018.0 |
| 20260506120303 | 13 | 82 | 1.6 | 3.2 | 0.00 | 0.43 | 0.41 | 86 | 1018.0 |
| 20260506110802 | 13 | 233 | 1.6 | 1.6 | 0.08 | 0.43 | 0.41 | 87 | 1018.0 |
| 20260506110302 | 13 | 197 | 1.6 | 4.8 | 0.08 | 0.43 | 0.41 | 85 | 1018.0 |
| 20260506100803 | 13 | 247 | 1.6 | 3.2 | 0.08 | 0.41 | 0.33 | 86 | 1018.0 |
| 20260506100303 | 13 | 289 | 0.0 | 19.3 | 0.05 | 0.38 | 0.30 | 85 | 1018.0 |
| 20260506080803 | 12 | 94 | 1.6 | 3.2 | 0.00 | 0.43 | 0.25 | 91 | 1018.0 |
| 20260506080302 | 12 | 123 | 1.6 | 3.2 | 0.00 | 0.43 | 0.25 | 91 | 1018.0 |
| 20260506070802 | 12 | 76 | 1.6 | 1.6 | 0.08 | 0.43 | 0.25 | 93 | 1018.0 |
| 20260506070303 | 12 | 76 | 0.0 | 3.2 | 0.08 | 0.43 | 0.25 | 93 | 1018.0 |
| 20260506060803 | 11 | 88 | 1.6 | 1.6 | 0.08 | 0.38 | 0.20 | 93 | 1018.0 |
| 20260506050303 | 11 | 161 | 0.0 | 3.2 | 0.03 | 0.30 | 0.13 | 93 | 1018.0 |
| 20260506040803 | 11 | 64 | 0.0 | 1.6 | 0.00 | 0.28 | 0.10 | 93 | 1018.0 |
| 20260506040303 | 11 | 62 | 1.6 | 4.8 | 0.00 | 0.28 | 0.10 | 93 | 1018.0 |
| 20260506030803 | 11 | 63 | 1.6 | 4.8 | 0.00 | 0.28 | 0.10 | 94 | 1018.0 |
| 20260506030303 | 11 | 73 | 1.6 | 4.8 | 0.03 | 0.28 | 0.10 | 94 | 1018.0 |
| 20260506020803 | 11 | 73 | 1.6 | 4.8 | 0.05 | 0.28 | 0.10 | 94 | 1018.1 |
| 20260506020303 | 11 | 82 | 1.6 | 4.8 | 0.03 | 0.25 | 0.08 | 94 | 1018.1 |